Back to catalog

CZ-3B DEB

AliveHEO
NORAD 41119·DEBRIS·🇨🇳 China

Launched Dec 19, 2011 from Xichang Satellite Launch Center

Loading…

Next Passes (next 24 hours)

TLE

AgingSource: Space-Track

Epoch: Sep 3, 2026, 11:13 UTC

1 41119U 11077AJ  26246.46782685 -.00000066  00000-0  00000+0 0  9990
2 41119  22.7700 343.6171 7280558 281.6941  11.6134  1.69772271 72330

Track CZ-3B DEB in real time with AllMySat

Download on the App Store